Back to catalog

CZ-6A DEB

AlivePO
NORAD 60763·DEBRIS·🇨🇳 China

Launched Aug 6, 2024 from Taiyuan Satellite Launch Center

Loading…

Next Passes (next 24 hours)

TLE

FreshSource: Space-Track

Epoch: Sep 14, 2026, 10:53 UTC

1 60763U 24140EN  26257.45350091  .00002754  00000-0  48712-3 0  9995
2 60763  89.0190 261.0439 0102759 286.8310  72.1654 14.63709505110825

Track CZ-6A DEB in real time with AllMySat

Download on the App Store